H1 CPF 2 NER 2022 1 3 9 003 01 glonass132 H2 1401201 9132 39620 2022 1 3 0 0 0 2022 1 6 23 45 0 900 1 1 0 0 0 1 H9 10 0 59582 0.00000 0 10444600.319 -516505.386 23287234.025 10 0 59582 900.00000 0 10751734.793 2324025.606 23039854.631 10 0 59582 1800.00000 0 11264162.430 5075626.194 22346255.389 10 0 59582 2700.00000 0 11958139.112 7671382.218 21220020.074 10 0 59582 3600.00000 0 12798787.785 10050608.699 19683067.602 10 0 59582 4500.00000 0 13741591.184 12161116.134 17765224.083 10 0 59582 5400.00000 0 14734303.027 13961125.486 15503646.823 10 0 59582 6300.00000 0 15719198.173 15420754.648 12942110.922 10 0 59582 7200.00000 0 16635568.273 16523016.537 10130171.513 10 0 59582 8100.00000 0 17422359.423 17264288.950 7122216.789 10 0 59582 9000.00000 0 18020842.228 17654237.752 3976428.887 10 0 59582 9900.00000 0 18377203.211 17715197.290 753671.586 10 0 59582 10800.00000 0 18444949.367 17481034.184 -2483674.882 10 0 59582 11700.00000 0 18187025.060 16995541.909 -5672910.410 10 0 59582 12600.00000 0 17577551.963 16310433.043 -8752220.601 10 0 59582 13500.00000 0 16603118.057 15483012.826 -11661868.706 10 0 59582 14400.00000 0 15263560.030 14573631.140 -14345351.236 10 0 59582 15300.00000 0 13572204.283 13643019.461 -16750494.985 10 0 59582 16200.00000 0 11555554.080 12749624.485 -18830474.169 10 0 59582 17100.00000 0 9252433.308 11947050.507 -20544727.741 10 0 59582 18000.00000 0 6712620.077 11281718.569 -21859758.531 10 0 59582 18900.00000 0 3995024.739 10790841.506 -22749798.094 10 0 59582 19800.00000 0 1165486.091 10500801.186 -23197323.481 10 0 59582 20700.00000 0 -1705724.003 10425997.530 -23193414.847 10 0 59582 21600.00000 0 -4546584.898 10568219.280 -22737945.830 10 0 59582 22500.00000 0 -7286089.250 10916564.500 -21839601.739 10 0 59582 23400.00000 0 -9856967.866 11447915.608 -20515723.985 10 0 59582 24300.00000 0 -12198263.549 12127950.043 -18791982.642 10 0 59582 25200.00000 0 -14257645.964 12912644.709 -16701882.558 10 0 59582 26100.00000 0 -15993370.070 13750210.944 -14286112.031 10 0 59582 27000.00000 0 -17375795.628 14583377.995 -11591746.465 10 0 59582 27900.00000 0 -18388403.788 15351927.635 -8671322.715 10 0 59582 28800.00000 0 -19028268.075 15995371.438 -5581802.886 10 0 59582 29700.00000 0 -19305960.670 16455655.803 -2383448.879 10 0 59582 30600.00000 0 -19244899.061 16679778.449 861368.945 10 0 59582 31500.00000 0 -18880162.322 16622203.952 4089403.959 10 0 59582 32400.00000 0 -18256829.080 16246974.624 7237780.605 10 0 59582 33300.00000 0 -17427909.700 15529426.387 10245230.936 10 0 59582 34200.00000 0 -16451962.342 14457436.575 13053294.860 10 0 59582 35100.00000 0 -15390495.699 13032150.930 15607459.832 10 0 59582 36000.00000 0 -14305269.690 11268159.496 17858217.507 10 0 59582 36900.00000 0 -13255609.021 9193114.710 19762016.944 10 0 59582 37800.00000 0 -12295843.134 6846808.554 21282096.671 10 0 59582 38700.00000 0 -11472979.903 4279748.092 22389180.738 10 0 59582 39600.00000 0 -10824709.823 1551289.565 23062026.829 10 0 59582 40500.00000 0 -10377822.927 -1272591.047 23287817.634 10 0 59582 41400.00000 0 -10147102.947 -4121798.571 23062389.721 10 0 59582 42300.00000 0 -10134743.069 -6924787.103 22390297.104 10 0 59582 43200.00000 0 -10330305.928 -9611287.045 21284709.642 10 0 59582 44100.00000 0 -10711227.883 -12114979.349 19767149.188 10 0 59582 45000.00000 0 -11243845.445 -14376008.050 17867069.055 10 0 59582 45900.00000 0 -11884900.212 -16343229.113 15621284.967 10 0 59582 46800.00000 0 -12583459.263 -17976104.403 13073268.048 10 0 59582 47700.00000 0 -13283170.897 -19246164.047 10272312.771 10 0 59582 48600.00000 0 -13924761.849 -20137977.993 7272594.918 10 0 59582 49500.00000 0 -14448672.073 -20649597.574 4132136.520 10 0 59582 50400.00000 0 -14797717.350 -20792449.362 911696.677 10 0 59582 51300.00000 0 -14919668.505 -20590686.054 -2326391.521 10 0 59582 52200.00000 0 -14769639.191 -20080021.432 -5519416.533 10 0 59582 53100.00000 0 -14312181.695 -19306097.690 -8605493.976 10 0 59582 54000.00000 0 -13523001.991 -18322452.926 -11524759.680 10 0 59582 54900.00000 0 -12390220.673 -17188173.251 -14220527.504 10 0 59582 55800.00000 0 -10915125.040 -15965327.340 -16640389.601 10 0 59582 56700.00000 0 -9112378.461 -14716290.555 -18737237.832 10 0 59582 57600.00000 0 -7009675.652 -13501070.654 -20470186.270 10 0 59582 58500.00000 0 -4646855.536 -12374747.404 -21805376.440 10 0 59582 59400.00000 0 -2074506.010 -11385133.940 -22716649.016 10 0 59582 60300.00000 0 647883.686 -10570758.742 -23186068.123 10 0 59582 61200.00000 0 3454148.040 -9959254.002 -23204286.996 10 0 59582 62100.00000 0 6273956.710 -9566219.194 -22770746.781 10 0 59582 63000.00000 0 9035508.807 -9394608.895 -21893703.343 10 0 59582 63900.00000 0 11668298.129 -9434671.770 -20590080.318 10 0 59582 64800.00000 0 14105834.079 -9664444.267 -18885150.114 10 0 59582 65700.00000 0 16288204.228 -10050778.878 -16812048.077 10 0 59582 66600.00000 0 18164370.681 -10550863.770 -14411128.652 10 0 59582 67500.00000 0 19694103.416 -11114169.326 -11729175.815 10 0 59582 68400.00000 0 20849468.896 -11684738.487 -8818483.278 10 0 59582 69300.00000 0 21615811.119 -12203722.689 -5735823.173 10 0 59582 70200.00000 0 21992184.015 -12612054.380 -2541324.349 10 0 59582 71100.00000 0 21991217.700 -12853141.047 702716.398 10 0 59582 72000.00000 0 21638425.440 -12875464.735 3933065.203 10 0 59582 72900.00000 0 20970982.336 -12634975.259 7086798.405 10 0 59582 73800.00000 0 20036029.366 -12097174.357 10102540.291 10 0 59582 74700.00000 0 18888576.600 -11238801.762 12921665.724 10 0 59582 75600.00000 0 17589096.233 -10049051.486 15489443.394 10 0 59582 76500.00000 0 16200908.751 -8530267.061 17756097.039 10 0 59582 77400.00000 0 14787473.696 -6698086.898 19677764.147 10 0 59582 78300.00000 0 13409699.699 -4581034.333 21217334.301 10 0 59582 79200.00000 0 12123386.717 -2219570.198 22345152.164 10 0 59582 80100.00000 0 10976907.107 335351.789 23039572.999 10 0 59582 81000.00000 0 10009221.278 3024166.233 23287361.829 10 0 59582 81900.00000 0 9248309.141 5780935.670 23083930.283 10 0 59582 82800.00000 0 8710080.839 8535855.887 22433408.221 10 0 59582 83700.00000 0 8397810.109 11217924.021 21348550.130 10 0 59582 84600.00000 0 8302111.918 13757660.204 19850479.051 10 0 59582 85500.00000 0 8401463.651 16089771.555 17968273.509 10 0 59583 0.00000 0 8663246.792 18155649.897 15738405.692 10 0 59583 900.00000 0 9045264.992 19905602.563 13204040.017 10 0 59583 1800.00000 0 9497674.400 21300722.790 10414208.051 10 0 59583 2700.00000 0 9965246.061 22314327.219 7422870.640 10 0 59583 3600.00000 0 10389865.713 22932899.062 4287887.147 10 0 59583 4500.00000 0 10713166.838 23156499.528 1069909.411 10 0 59583 5400.00000 0 10879186.940 22998630.457 -2168779.174 10 0 59583 6300.00000 0 10836935.806 22485553.790 -5365458.082 10 0 59583 7200.00000 0 10542767.799 21655095.825 -8458175.258 10 0 59583 8100.00000 0 9962457.970 20554985.573 -11386941.235 10 0 59583 9000.00000 0 9072893.675 19240795.882 -14094889.125 10 0 59583 9900.00000 0 7863309.095 17773572.703 -16529378.124 10 0 59583 10800.00000 0 6336008.713 16217251.012 -18643019.190 10 0 59583 11700.00000 0 4506546.875 14635965.066 -20394602.786 10 0 59583 12600.00000 0 2403353.197 13091365.427 -21749910.200 10 0 59583 13500.00000 0 66816.580 11640055.172 -22682392.107 10 0 59583 14400.00000 0 -2452136.665 10331253.062 -23173700.366 10 0 59583 15300.00000 0 -5093913.658 9204782.287 -23214061.677 10 0 59583 16200.00000 0 -7792498.760 8289469.941 -22802484.732 10 0 59583 17100.00000 0 -10477978.302 7602025.362 -21946795.580 10 0 59583 18000.00000 0 -13079241.703 7146445.397 -20663499.244 10 0 59583 18900.00000 0 -15526746.599 6913972.419 -18977469.158 10 0 59583 19800.00000 0 -17755232.249 6883607.375 -16921469.421 10 0 59583 20700.00000 0 -19706267.065 7023156.435 -14535518.529 10 0 59583 21600.00000 0 -21330522.754 7290766.738 -11866106.660 10 0 59583 22500.00000 0 -22589678.878 7636885.546 -8965281.879 10 0 59583 23400.00000 0 -23457877.075 8006558.633 -5889623.777 10 0 59583 24300.00000 0 -23922663.513 8341968.934 -2699125.585 10 0 59583 25200.00000 0 -23985380.072 8585105.907 543991.986 10 0 59583 26100.00000 0 -23660988.481 8680450.475 3776510.295 10 0 59583 27000.00000 0 -22977336.153 8577559.797 6935459.985 10 0 59583 27900.00000 0 -21973896.420 8233440.680 9959359.924 10 0 59583 28800.00000 0 -20700038.352 7614609.942 12789422.225 10 0 59583 29700.00000 0 -19212901.208 6698753.833 15370699.006 10 0 59583 30600.00000 0 -17574964.983 5475916.169 17653148.146 10 0 59583 31500.00000 0 -15851420.846 3949165.365 19592597.411 10 0 59583 32400.00000 0 -14107452.949 2134712.779 21151589.038 10 0 59583 33300.00000 0 -12405545.877 61478.052 22300089.572 10 0 59583 34200.00000 0 -10802930.205 -2229879.638 23016052.789 10 0 59583 35100.00000 0 -9349271.792 -4688423.533 23285826.587 10 0 59583 36000.00000 0 -8084699.692 -7254833.360 23104397.832 10 0 59583 36900.00000 0 -7038252.882 -9863652.911 22475472.029 10 0 59583 37800.00000 0 -6226808.268 -12445798.472 21411387.730 10 0 59583 38700.00000 0 -5654532.344 -14931225.113 19932868.266 10 0 59583 39600.00000 0 -5312877.294 -17251641.608 18068616.163 10 0 59583 40500.00000 0 -5181119.947 -19343163.086 15854758.126 10 0 59583 41400.00000 0 -5227419.786 -21148793.113 13334150.924 10 0 59583 42300.00000 0 -5410351.064 -22620633.765 10555560.869 10 0 59583 43200.00000 0 -5680844.594 -23721733.370 7572731.757 10 0 59583 44100.00000 0 -5984458.002 -24427496.198 4443358.041 10 0 59583 45000.00000 0 -6263879.599 -24726596.023 1227981.986 10 0 59583 45900.00000 0 -6461561.200 -24621355.839 -2011165.083 10 0 59583 46800.00000 0 -6522369.683 -24127577.637 -5211356.112 10 0 59583 47700.00000 0 -6396145.939 -23273828.840 -8310573.887 10 0 59583 48600.00000 0 -6040063.380 -22100214.353 -11248706.234 10 0 59583 49500.00000 0 -5420686.074 -20656684.535 -13968708.154 10 0 59583 50400.00000 0 -4515638.776 -19000948.794 -16417708.531 10 0 59583 51300.00000 0 -3314816.858 -17196081.006 -18548039.995 10 0 59583 52200.00000 0 -1821083.101 -15307916.057 -20318171.798 10 0 59583 53100.00000 0 -50419.516 -13402345.783 -21693527.137 10 0 59583 54000.00000 0 1968475.016 -11542627.083 -22647168.473 10 0 59583 54900.00000 0 4195127.340 -9786814.728 -23160336.757 10 0 59583 55800.00000 0 6578736.096 -8185426.683 -23222833.042 10 0 59583 56700.00000 0 9060063.248 -6779440.097 -22833233.976 10 0 59583 57600.00000 0 11573693.927 -5598702.652 -21998935.709 10 0 59583 58500.00000 0 14050571.449 -4660826.640 -20736024.109 10 0 59583 59400.00000 0 16420702.203 -3970612.847 -19068972.621 10 0 59583 60300.00000 0 18615917.393 -3520028.919 -17030172.624 10 0 59583 61200.00000 0 20572575.442 -3288743.283 -14659304.711 10 0 59583 62100.00000 0 22234091.019 -3245191.810 -12002562.847 10 0 59583 63000.00000 0 23553183.523 -3348131.396 -9111746.584 10 0 59583 63900.00000 0 24493749.533 -3548613.564 -6043239.706 10 0 59583 64800.00000 0 25032279.739 -3792292.839 -2856896.273 10 0 59583 65700.00000 0 25158760.358 -4021970.119 385142.829 10 0 59583 66600.00000 0 24877021.256 -4180261.112 3619677.955 10 0 59583 67500.00000 0 24204516.873 -4212274.569 6783697.719 10 0 59583 68400.00000 0 23171550.511 -4068184.904 9815618.995 10 0 59583 69300.00000 0 21819976.392 -3705588.700 12656494.230 10 0 59583 70200.00000 0 20201436.096 -3091544.331 15251161.643 10 0 59583 71100.00000 0 18375205.492 -2204207.958 17549315.470 10 0 59583 72000.00000 0 16405744.355 -1033996.906 19506475.533 10 0 59583 72900.00000 0 14360052.737 415768.223 21084838.033 10 0 59583 73800.00000 0 12304945.392 2128769.062 22253992.280 10 0 59583 74700.00000 0 10304358.275 4076145.800 22991490.995 10 0 59583 75600.00000 0 8416798.717 6217484.642 23283264.964 10 0 59583 76500.00000 0 6693044.196 8502294.822 23123875.852 10 0 59583 77400.00000 0 5174183.608 10871913.521 22516603.941 10 0 59583 78300.00000 0 3890080.277 13261759.872 21473370.553 10 0 59583 79200.00000 0 2858318.195 15603845.187 20014497.620 10 0 59583 80100.00000 0 2083673.021 17829436.262 18168309.621 10 0 59583 81000.00000 0 1558127.737 19871762.622 15970585.665 10 0 59583 81900.00000 0 1261430.559 21668656.879 13463871.898 10 0 59583 82800.00000 0 1162170.594 23165019.962 10696666.838 10 0 59583 83700.00000 0 1219325.566 24315010.142 7722494.372 10 0 59583 84600.00000 0 1384216.504 25083865.826 4598881.124 10 0 59583 85500.00000 0 1602787.612 25449286.865 1386256.861 10 0 59584 0.00000 0 1818115.925 25402317.053 -1853201.763 10 0 59584 900.00000 0 1973045.786 24947690.698 -5056764.513 10 0 59584 1800.00000 0 2012837.425 24103628.289 -8162351.322 10 0 59584 2700.00000 0 1887718.562 22901088.780 -11109729.667 10 0 59584 3600.00000 0 1555231.043 21382508.434 -13841678.535 10 0 59584 4500.00000 0 982273.014 19600077.690 -16305098.301 10 0 59584 5400.00000 0 146749.363 17613626.697 -18452044.802 10 0 59584 6300.00000 0 -961240.865 15488206.587 -20240667.358 10 0 59584 7200.00000 0 -2338732.220 13291466.623 -21636032.111 10 0 59584 8100.00000 0 -3969766.636 11090935.985 -22610814.119 10 0 59584 9000.00000 0 -5825821.371 8951323.347 -23145843.978 10 0 59584 9900.00000 0 -7866775.876 6931947.045 -23230497.360 10 0 59584 10800.00000 0 -10042379.694 5084403.406 -22862918.768 10 0 59584 11700.00000 0 -12294162.144 3450571.200 -22050073.947 10 0 59584 12600.00000 0 -14557705.431 2061036.332 -20807628.626 10 0 59584 13500.00000 0 -16765187.051 934003.348 -19159654.807 10 0 59584 14400.00000 0 -18848085.413 74739.819 -17138169.225 10 0 59584 15300.00000 0 -20739934.919 -524422.839 -14782512.273 10 0 59584 16200.00000 0 -22379014.215 -883532.384 -12138579.111 10 0 59584 17100.00000 0 -23710853.621 -1033926.811 -9257917.988 10 0 59584 18000.00000 0 -24690455.068 -1016660.562 -6196714.008 10 0 59584 18900.00000 0 -25284130.024 -880514.114 -3014679.164 10 0 59584 19800.00000 0 -25470877.207 -679673.197 226128.343 10 0 59584 20700.00000 0 -25243241.644 -471178.168 3462530.662 10 0 59584 21600.00000 0 -24607619.125 -312253.961 6631477.091 10 0 59584 22500.00000 0 -23583993.996 -257635.894 9671285.111 10 0 59584 23400.00000 0 -22205122.642 -357006.404 12522849.974 10 0 59584 24300.00000 0 -20515198.673 -652652.591 15130798.279 10 0 59584 25200.00000 0 -18568057.720 -1177444.404 17444562.671 10 0 59584 26100.00000 0 -16424998.932 -1953219.031 19419356.764 10 0 59584 27000.00000 0 -14152315.868 -2989639.373 21017032.100 10 0 59584 27900.00000 0 -11818640.938 -4283574.008 22206801.724 10 0 59584 28800.00000 0 -9492214.628 -5819023.841 22965817.843 10 0 59584 29700.00000 0 -7238192.870 -7567597.737 23279594.243 10 0 59584 30600.00000 0 -5116103.525 -9489516.615 23142267.095 10 0 59584 31500.00000 0 -3177556.096 -11535103.707 22556690.795 10 0 59584 32400.00000 0 -1464297.639 -13646698.957 21534368.442 10 0 59584 33300.00000 0 -6693.203 -15760918.338 20095219.281 10 0 59584 34200.00000 0 1177308.495 -17811164.928 18267188.202 10 0 59584 35100.00000 0 2082683.537 -19730288.497 16085704.945 10 0 59584 36000.00000 0 2717296.315 -21453284.409 13593003.048 10 0 59584 36900.00000 0 3101321.184 -22919920.899 10837311.080 10 0 59584 37800.00000 0 3266147.546 -24077186.729 7871930.742 10 0 59584 38700.00000 0 3252814.796 -24881458.298 4754218.478 10 0 59584 39600.00000 0 3110042.836 -25300296.553 1544489.150 10 0 59584 40500.00000 0 2891940.611 -25313798.995 -1695138.224 10 0 59584 41400.00000 0 2655488.597 -24915450.108 -4901931.441 10 0 59584 42300.00000 0 2457900.688 -24112434.007 -8013750.510 10 0 59584 43200.00000 0 2353976.247 -22925395.178 -10970244.893 10 0 59584 44100.00000 0 2393553.860 -21387655.887 -13714019.852 10 0 59584 45000.00000 0 2619174.407 -19543921.422 -16191749.495 10 0 59584 45900.00000 0 3064052.740 -17448525.590 -18355214.993 10 0 59584 46800.00000 0 3750444.761 -15163288.153 -20162247.709 10 0 59584 47700.00000 0 4688480.401 -12755072.267 -21577558.466 10 0 59584 48600.00000 0 5875513.865 -10293142.728 -22573436.349 10 0 59584 49500.00000 0 7296020.949 -7846434.387 -23130302.693 10 0 59584 50400.00000 0 8922050.380 -5480844.351 -23237108.491 10 0 59584 51300.00000 0 10714212.786 -3256660.804 -22891566.427 10 0 59584 52200.00000 0 12623168.193 -1226236.001 -22100211.761 10 0 59584 53100.00000 0 14591551.416 567998.885 -20878289.629 10 0 59584 54000.00000 0 16556255.994 2095093.559 -19249469.737 10 0 59584 54900.00000 0 18450981.438 3336647.296 -17245392.935 10 0 59584 55800.00000 0 20208936.847 4287341.402 -14905057.747 10 0 59584 56700.00000 0 21765586.708 4954913.181 -12274058.421 10 0 59584 57600.00000 0 23061322.392 5359573.081 -9403689.389 10 0 59584 58500.00000 0 24043945.534 5532890.532 -6349934.168 10 0 59584 59400.00000 0 24670857.385 5516197.129 -3172359.458 10 0 59584 60300.00000 0 24910860.644 5358576.595 67062.646 10 0 59584 61200.00000 0 24745496.970 5114528.841 3305179.595 10 0 59584 62100.00000 0 24169863.472 4841409.466 6478904.822 10 0 59584 63000.00000 0 23192873.989 4596755.473 9526459.714 10 0 59584 63900.00000 0 21836954.970 4435612.511 12388585.347 10 0 59584 64800.00000 0 20137189.990 4407978.409 15009699.409 10 0 59584 65700.00000 0 18139950.359 4556472.186 17338975.292 10 0 59584 66600.00000 0 15901070.899 4914327.442 19331322.370 10 0 59584 67500.00000 0 13483648.712 5503794.670 20948249.125 10 0 59584 68400.00000 0 10955557.981 6335019.176 22158593.551 10 0 59584 69300.00000 0 8386785.067 7405440.871 22939108.170 10 0 59584 70200.00000 0 5846694.739 8699740.115 23274890.187 10 0 59584 71100.00000 0 3401340.397 10190330.946 23159650.261 10 0 59584 72000.00000 0 1110928.643 11838380.348 22595816.423 10 0 59584 72900.00000 0 -972458.557 13595310.658 21594472.592 10 0 59584 73800.00000 0 -2806791.943 15404722.567 20175133.898 10 0 59584 74700.00000 0 -4361595.677 17204659.015 18365363.777 10 0 59584 75600.00000 0 -5618960.881 18930116.589 16200240.339 10 0 59584 76500.00000 0 -6574032.131 20515700.949 13721681.965 10 0 59584 77400.00000 0 -7234948.474 21898316.872 10977644.493 10 0 59584 78300.00000 0 -7622242.936 23019782.029 8021204.505 10 0 59584 79200.00000 0 -7767726.465 23829256.533 4909545.246 10 0 59584 80100.00000 0 -7712903.494 24285387.551 1702863.649 10 0 59584 81000.00000 0 -7506985.538 24358079.732 -1536781.619 10 0 59584 81900.00000 0 -7204585.979 24029817.307 -4746659.875 10 0 59584 82800.00000 0 -6863192.469 23296481.907 -7864573.683 10 0 59584 83700.00000 0 -6540522.935 22167630.835 -10830057.038 10 0 59584 84600.00000 0 -6291876.214 20666222.600 -13585543.790 10 0 59584 85500.00000 0 -6167588.960 18827799.487 -16077483.797 10 0 59585 0.00000 0 -6210706.355 16699159.556 -18257385.128 10 0 59585 900.00000 0 -6454965.676 14336570.409 -20082763.021 10 0 59585 1800.00000 0 -6923178.853 11803600.411 -21517973.946 10 0 59585 2700.00000 0 -7626083.960 9168652.452 -22534921.931 10 0 59585 3600.00000 0 -8561716.049 6502304.617 -23113619.690 10 0 59585 4500.00000 0 -9715326.100 3874566.733 -23242593.878 10 0 59585 5400.00000 0 -11059853.876 1352166.864 -22919125.349 10 0 59585 6300.00000 0 -12556937.110 -1004019.208 -22149318.481 10 0 59585 7200.00000 0 -14158416.506 -3141287.948 -20947996.967 10 0 59585 8100.00000 0 -15808274.818 -5017080.236 -19338426.905 10 0 59585 9000.00000 0 -17444929.418 -6600522.806 -17351871.485 10 0 59585 9900.00000 0 -19003782.114 -7873473.989 -15026985.175 10 0 59585 10800.00000 0 -20419918.576 -8831029.832 -12409058.800 10 0 59585 11700.00000 0 -21630842.767 -9481469.625 -9549130.189 10 0 59585 12600.00000 0 -22579129.770 -9845643.876 -6502978.334 10 0 59585 13500.00000 0 -23214883.677 -9955831.850 -3330021.620 10 0 59585 14400.00000 0 -23497895.352 -9854118.717 -92142.975 10 0 59585 15300.00000 0 -23399407.743 -9590363.062 3147533.394 10 0 59585 16200.00000 0 -22903413.499 -9219843.183 6325888.045 10 0 59585 17100.00000 0 -22007429.831 -8800684.240 9381049.158 10 0 59585 18000.00000 0 -20722718.249 -8391177.415 12253606.389 10 0 59585 18900.00000 0 -19073940.758 -8047106.407 14887771.057 10 0 59585 19800.00000 0 -17098268.049 -7819195.648 17232459.577 10 0 59585 20700.00000 0 -14843978.568 -7750788.744 19242279.003 10 0 59585 21600.00000 0 -12368608.395 -7875855.140 20878396.271 10 0 59585 22500.00000 0 -9736730.378 -8217408.483 22109275.381 10 0 59585 23400.00000 0 -7017455.848 -8786402.246 22911269.761 10 0 59585 24300.00000 0 -4281763.015 -9581147.797 23269060.154 10 0 59585 25200.00000 0 -1599762.547 -10587278.071 23175931.393 10 0 59585 26100.00000 0 961987.274 -11778257.247 22633884.441 10 0 59585 27000.00000 0 3343006.177 -13116414.317 21653582.980 10 0 59585 27900.00000 0 5491155.805 -14554457.018 20254136.679 10 0 59585 28800.00000 0 7364550.287 -16037402.949 18462725.895 10 0 59585 29700.00000 0 8933036.759 -17504847.799 16314075.247 10 0 59585 30600.00000 0 10179186.674 -18893476.889 13849785.851 10 0 59585 31500.00000 0 11098758.662 -20139716.235 11117538.482 10 0 59585 32400.00000 0 11700615.347 -21182413.614 8170182.082 10 0 59585 33300.00000 0 12006098.762 -21965438.644 5064724.027 10 0 59585 34200.00000 0 12047891.080 -22440093.984 1861240.555 10 0 59585 35100.00000 0 11868408.624 -22567237.239 -1378272.806 10 0 59585 36000.00000 0 11517796.337 -22319024.732 -4591089.635 10 0 59585 36900.00000 0 11051606.524 -21680203.583 -7714957.687 10 0 59585 37800.00000 0 10528258.970 -20648896.976 -10689298.005 10 0 59585 38700.00000 0 10006388.855 -19236848.190 -13456375.361 10 0 59585 39600.00000 0 9542193.831 -17469111.344 -15962417.537 10 0 59585 40500.00000 0 9186892.046 -15383199.649 -18158661.808 10 0 59585 41400.00000 0 8984398.562 -13027724.508 -20002308.223 10 0 59585 42300.00000 0 8969318.866 -10460580.168 -21457360.755 10 0 59585 43200.00000 0 9165345.211 -7746747.638 -22495339.495 10 0 59585 44100.00000 0 9584124.917 -4955807.714 -23095849.294 10 0 59585 45000.00000 0 10224650.163 -2159265.543 -23246992.882 10 0 59585 45900.00000 0 11073196.997 572202.701 -22945619.324 10 0 59585 46800.00000 0 12103818.187 3171466.733 -22197401.798 10 0 59585 47700.00000 0 13279371.021 5577509.336 -21016741.902 10 0 59585 48600.00000 0 14553038.310 7737736.435 -19426501.141 10 0 59585 49500.00000 0 15870279.596 9609933.157 -17457563.724 10 0 59585 50400.00000 0 17171130.753 11163783.472 -15148238.404 10 0 59585 51300.00000 0 18392754.896 12381889.521 -12543510.553 10 0 59585 52200.00000 0 19472136.205 13260247.822 -9694159.028 10 0 59585 53100.00000 0 20348801.722 13808162.754 -6655755.594 10 0 59585 54000.00000 0 20967454.643 14047601.983 -3487567.339 10 0 59585 54900.00000 0 21280406.203 14012022.498 -251384.857 10 0 59585 55800.00000 0 21249701.897 13744718.796 2989699.239 10 0 59585 56700.00000 0 20848851.003 13296765.376 6172535.853 10 0 59585 57600.00000 0 20064085.637 12724642.978 9235163.053 10 0 59585 58500.00000 0 18895096.023 12087651.370 12118021.942 10 0 59585 59400.00000 0 17355211.321 11445220.185 14765120.074 10 0 59585 60300.00000 0 15471019.138 10854233.059 17125119.179 10 0 59585 61200.00000 0 13281440.795 10366479.051 19152325.983 10 0 59585 62100.00000 0 10836302.252 10026339.138 20807567.536 10 0 59585 63000.00000 0 8194461.437 9868804.865 22058935.191 10 0 59585 63900.00000 0 5421570.941 9917911.577 22882384.279 10 0 59585 64800.00000 0 2587569.473 10185650.708 23262179.708 10 0 59585 65700.00000 0 -235993.977 10671405.240 23191180.704 10 0 59585 66600.00000 0 -2978693.016 11361930.476 22670960.920 10 0 59585 67500.00000 0 -5573901.921 12231879.654 21711763.093 10 0 59585 68400.00000 0 -7961309.889 13244851.515 20332290.210 10 0 59585 69300.00000 0 -10089169.377 14354915.547 18559337.864 10 0 59585 70200.00000 0 -11916187.769 15508551.228 16427275.053 10 0 59585 71100.00000 0 -13412986.177 16646920.655 13977383.148 10 0 59585 72000.00000 0 -14563066.818 17708380.354 11257065.120 10 0 59585 72900.00000 0 -15363250.510 18631128.198 8318939.358 10 0 59585 73800.00000 0 -15823567.352 19355875.691 5219834.373 10 0 59585 74700.00000 0 -15966605.944 19828434.550 2019702.698 10 0 59585 75600.00000 0 -15826348.732 20002109.809 -1219526.242 10 0 59585 76500.00000 0 -15446542.218 19839799.259 -4435133.187 10 0 59585 77400.00000 0 -14878670.001 19315710.856 -7564813.860 10 0 59585 78300.00000 0 -14179613.270 18416625.183 -10547878.971 10 0 59585 79200.00000 0 -13409096.467 17142648.645 -13326426.644 10 0 59585 80100.00000 0 -12627025.077 15507423.976 -15846464.752 10 0 59585 81000.00000 0 -11890827.269 13537787.050 -18058961.495 10 0 59585 81900.00000 0 -11252911.283 11272881.885 -19920803.717 10 0 59585 82800.00000 0 -10758345.942 8762768.403 -21395643.975 10 0 59585 83700.00000 0 -10442862.683 6066578.682 -22454619.402 10 0 59585 84600.00000 0 -10331264.319 3250296.439 -23076927.676 10 0 59585 85500.00000 0 -10436308.913 384250.648 -23250247.955 99